FW8634 Weather Reports


Display with metric or nautical units.
time (UTC)temp
F
wind
direction
speed
MPH
gust
MPH
rain 1hr
in
rain 24hr
in
rain mn
in
humidity
%
barometer
mb
20260505034542 55 32 0.0 1.0 0.00 0.00 0.00 67 1015.5
20260505033043 58 19 0.0 1.0 0.00 0.00 0.00 61 1015.8
20260505031540 59 0 0.0 0.0 0.00 0.00 0.00 59 1015.8
20260505030109 59 0 0.0 0.0 0.00 0.00 0.00 58 1015.9
20260505024549 59 0 0.0 1.0 0.00 0.00 0.00 60 1015.9
20260505023042 60 0 0.0 2.0 0.00 0.00 0.00 57 1015.8
20260505021543 60 0 0.0 3.0 0.00 0.00 0.00 60 1015.6
20260505020043 60 0 0.0 1.0 0.00 0.00 0.00 59 1015.6
20260505014559 62 0 0.0 1.0 0.00 0.00 0.00 57 1015.5
20260505013051 63 0 0.0 2.0 0.00 0.00 0.00 54 1015.3
20260505011544 63 30 0.0 5.0 0.00 0.00 0.00 54 1015.1
20260505010052 63 13 0.0 4.0 0.00 0.00 0.00 55 1015.1
20260505004548 64 0 0.0 2.0 0.00 0.00 0.00 53 1014.8
20260505003053 64 27 0.0 1.0 0.00 0.00 0.00 51 1014.7
20260505001545 66 0 0.0 1.0 0.00 0.00 0.00 51 1014.6
20260505000043 68 0 0.0 2.0 0.00 0.00 0.00 48 1014.5
20260504234540 69 26 2.0 7.0 0.00 0.00 0.00 44 1014.4
20260504233050 70 25 4.0 8.0 0.00 0.00 0.00 41 1014.2
20260504231544 71 41 4.0 10.0 0.00 0.00 0.00 40 1014.2
20260504230046 72 32 4.0 11.0 0.00 0.00 0.00 38 1014.1
20260504224543 73 34 7.0 15.0 0.00 0.00 0.00 36 1014.1
20260504223058 73 32 5.0 15.0 0.00 0.00 0.00 36 1014.2
20260504221542 74 354 9.0 17.0 0.00 0.00 0.00 36 1014.1
20260504220039 75 59 7.0 15.0 0.00 0.00 0.00 37 1014.0
20260504214550 75 26 8.0 15.0 0.00 0.00 0.00 37 1014.0
20260504213046 76 30 7.0 14.0 0.00 0.00 0.00 36 1014.0
20260504211615 76 41 9.0 20.0 0.00 0.00 0.00 35 1014.0
20260504210049 76 49 4.0 15.0 0.00 0.00 0.00 35 1014.1
20260504204546 76 32 9.0 17.0 0.00 0.00 0.00 35 1014.1
20260504203038 77 37 6.0 15.0 0.00 0.00 0.00 35 1014.2
20260504201544 77 293 7.0 14.0 0.00 0.00 0.00 33 1014.5
20260504200042 77 322 3.0 17.0 0.00 0.00 0.00 33 1014.6
20260504194547 77 18 6.0 12.0 0.00 0.00 0.00 35 1014.7
20260504193039 76 31 2.0 12.0 0.00 0.00 0.00 33 1014.9
20260504191542 77 331 4.0 9.0 0.00 0.00 0.00 34 1015.1
20260504190059 75 11 7.0 12.0 0.00 0.00 0.00 35 1015.4
20260504184549 75 352 2.0 9.0 0.00 0.00 0.00 33 1015.6
20260504183050 74 18 3.0 12.0 0.00 0.00 0.00 36 1015.9
20260504181600 74 344 5.0 12.0 0.00 0.00 0.00 33 1016.0
20260504180053 75 6 2.0 7.0 0.00 0.00 0.00 36 1016.2
20260504174544 73 337 5.0 10.0 0.00 0.00 0.00 36 1016.4
20260504173048 72 4 8.0 16.0 0.00 0.00 0.00 37 1016.4
20260504171541 72 332 6.0 13.0 0.00 0.00 0.00 37 1016.5
20260504081542 41 0 1.0 2.0 0.00 0.00 0.00 86 1017.4
20260504044543 49 0 1.0 6.0 0.00 0.00 0.00 71 1017.7
20260504043046 48 0 0.0 3.0 0.00 0.00 0.00 76 1017.6
20260504041541 48 39 0.0 4.0 0.00 0.00 0.00 78 1017.4
20260504040041 49 46 2.0 4.0 0.00 0.00 0.00 76 1017.4